This is the latest recevied weather packets stored in our database for station/object N5JXS. If no packets are shown the sender has not sent any weather packets the latest 10 day(s).
| Time | Temp. | Humidity | Pressure | Rain* | Wind** | Luminosity | Snow |
|---|---|---|---|---|---|---|---|
| 1777815603 | 8.33° C | 42% | 1023 hPa | 0 mm | - | 66 W/m² | - |
| 1777815301 | 8.33° C | 42% | 1023 hPa | 0 mm | - | 61 W/m² | - |
| 1777814997 | 7.78° C | 43% | 1022.6 hPa | 0 mm | - | 56 W/m² | - |
| 1777814694 | 7.78° C | 44% | 1023 hPa | 0 mm | - | 50 W/m² | - |
| 1777814390 | 7.78° C | 46% | 1022.7 hPa | 0 mm | - | 47 W/m² | - |
| 1777814087 | 7.78° C | 43% | 1022.9 hPa | 0 mm | - | 43 W/m² | - |
| 1777813784 | 7.78° C | 42% | 1022.9 hPa | 0 mm | - | 40 W/m² | - |
| 1777813482 | 7.22° C | 43% | 1022.9 hPa | 0 mm | - | 36 W/m² | - |
| 1777813179 | 7.22° C | 45% | 1023 hPa | 0 mm | - | 35 W/m² | - |
| 1777812877 | 6.67° C | 45% | 1022.6 hPa | 0 mm | - | 31 W/m² | - |
| 1777812573 | 6.67° C | 45% | 1022.7 hPa | 0 mm | - | 27 W/m² | - |
| 1777812271 | 6.67° C | 44% | 1022.6 hPa | 0 mm | - | 24 W/m² | - |
| 1777811969 | 6.67° C | 44% | 1022.5 hPa | 0 mm | - | 23 W/m² | - |
| 1777811667 | 6.67° C | 43% | 1022.5 hPa | 0 mm | - | 20 W/m² | - |
| 1777811362 | 6.11° C | 43% | 1022.5 hPa | 0 mm | - | 16 W/m² | - |
| 1777811060 | 5.56° C | 46% | 1022.5 hPa | 0 mm | - | 14 W/m² | - |
| 1777810757 | 5.56° C | 45% | 1022.5 hPa | 0 mm | - | 11 W/m² | - |
| 1777810454 | 5.56° C | 45% | 1022.1 hPa | 0 mm | - | 8 W/m² | - |
| 1777810149 | 5.56° C | 45% | 1022.4 hPa | 0 mm | - | 4 W/m² | - |
| 1777809847 | 5.56° C | 45% | 1022 hPa | 0 mm | - | 2 W/m² | - |
| 1777809545 | 5.56° C | 44% | 1022.1 hPa | 0 mm | - | 1 W/m² | - |
| 1777809242 | 5.56° C | 43% | 1022.2 hPa | 0 mm | - | 0 W/m² | - |
| 1777808940 | 5.56° C | 43% | 1022 hPa | 0 mm | - | 0 W/m² | - |
| 1777808636 | 5.56° C | 45% | 1022.2 hPa | 0 mm | - | 0 W/m² | - |
| 1777808333 | 5.56° C | 44% | 1022.2 hPa | 0 mm | - | 0 W/m² | - |
* Rain latest hour (hover to see other rain measurements)
** Current wind speed in m/s (hover to see current wind gust speed)